Previsão horária em Allenwil

Hoje, 16 Junho, Quarta-feira

Tempo Temperatura Precipitação Vento Pressão Humidade
00:00 +18°C° 0 mm 1 m/s 713 mmHg 76%
01:00 +18°C° 0 mm 1 m/s 713 mmHg 77%
02:00 +16°C° 0 mm 1 m/s 713 mmHg 77%
03:00 +15°C° 0 mm 0 m/s 713 mmHg 77%
04:00 +16°C° 0 mm 0 m/s 713 mmHg 75%
05:00 +18°C° 0 mm 0 m/s 713 mmHg 73%
06:00 +19°C° 0 mm 0 m/s 713 mmHg 71%
07:00 +21°C° 0 mm 0 m/s 713 mmHg 64%
08:00 +25°C° 0 mm 1 m/s 713 mmHg 58%
09:00 +27°C° 0 mm 1 m/s 713 mmHg 52%
10:00 +28°C° 0 mm 1 m/s 713 mmHg 49%
11:00 +29°C° 0 mm 1 m/s 713 mmHg 46%
12:00 +30°C° 0 mm 1 m/s 713 mmHg 43%
13:00 +30°C° 0 mm 1 m/s 712 mmHg 43%
14:00 +30°C° 0 mm 1 m/s 712 mmHg 43%
15:00 +30°C° 0 mm 1 m/s 712 mmHg 43%
16:00 +29°C° 0 mm 1 m/s 712 mmHg 52%
17:00 +25°C° 0 mm 0 m/s 711 mmHg 61%
18:00 +24°C° 0 mm 0 m/s 711 mmHg 70%
19:00 +22°C° 0 mm 0 m/s 711 mmHg 72%
20:00 +23°C° 0 mm 1 m/s 711 mmHg 75%
21:00 +21°C° 0 mm 1 m/s 711 mmHg 77%
22:00 +20°C° 0 mm 1 m/s 711 mmHg 77%
23:00 +20°C° 0 mm 1 m/s 711 mmHg 77%

Amanhã, 17 Junho, Quinta-feira

Tempo Temperatura Precipitação Vento Pressão Humidade
00:00 +19°C° 0 mm 1 m/s 711 mmHg 77%
01:00 +19°C° 0 mm 1 m/s 711 mmHg 77%
02:00 +19°C° 0 mm 1 m/s 711 mmHg 78%
03:00 +19°C° 0 mm 1 m/s 712 mmHg 78%
04:00 +20°C° 0 mm 1 m/s 712 mmHg 76%
05:00 +21°C° 0 mm 1 m/s 712 mmHg 74%
06:00 +20°C° 0 mm 0 m/s 712 mmHg 73%
07:00 +22°C° 0 mm 0 m/s 712 mmHg 66%
08:00 +24°C° 0 mm 0 m/s 712 mmHg 60%
09:00 +28°C° 0 mm 1 m/s 713 mmHg 53%
10:00 +29°C° 0 mm 1 m/s 712 mmHg 50%
11:00 +30°C° 0 mm 1 m/s 712 mmHg 47%
12:00 +31°C° 0 mm 1 m/s 712 mmHg 43%
13:00 +31°C° 0 mm 2 m/s 712 mmHg 44%
14:00 +31°C° 0 mm 2 m/s 711 mmHg 44%
15:00 +31°C° 0 mm 2 m/s 711 mmHg 44%
16:00 +30°C° 0 mm 2 m/s 711 mmHg 54%
17:00 +28°C° 0 mm 1 m/s 711 mmHg 63%
18:00 +27°C° 0 mm 1 m/s 711 mmHg 72%
19:00 +25°C° 0.7 mm 2 m/s 711 mmHg 79%
20:00 +23°C° 0.7 mm 2 m/s 712 mmHg 87%
21:00 +19°C° 0.7 mm 3 m/s 712 mmHg 94%
22:00 +19°C° 1.2 mm 3 m/s 712 mmHg 94%
23:00 +18°C° 1.2 mm 2 m/s 712 mmHg 95%

Depois de amanhã, 18 Junho, Sexta-feira

Tempo Temperatura Precipitação Vento Pressão Humidade
00:00 +19°C° 1.2 mm 1 m/s 713 mmHg 96%
01:00 +19°C° 0.4 mm 1 m/s 712 mmHg 95%
02:00 +18°C° 0.4 mm 1 m/s 712 mmHg 95%
03:00 +18°C° 0.4 mm 1 m/s 712 mmHg 95%
04:00 +19°C° 0 mm 1 m/s 712 mmHg 93%
05:00 +20°C° 0 mm 1 m/s 712 mmHg 91%
06:00 +21°C° 0 mm 1 m/s 712 mmHg 89%
07:00 +23°C° 0 mm 1 m/s 712 mmHg 79%
08:00 +25°C° 0 mm 1 m/s 712 mmHg 68%
09:00 +27°C° 0 mm 1 m/s 712 mmHg 58%
10:00 +28°C° 0 mm 1 m/s 712 mmHg 56%
11:00 +29°C° 0 mm 1 m/s 712 mmHg 53%
12:00 +30°C° 0 mm 2 m/s 712 mmHg 51%
13:00 +30°C° 0.4 mm 2 m/s 712 mmHg 55%
14:00 +29°C° 0.4 mm 2 m/s 712 mmHg 59%
15:00 +29°C° 0.4 mm 2 m/s 712 mmHg 63%
16:00 +27°C° 2.1 mm 2 m/s 713 mmHg 72%
17:00 +25°C° 2.1 mm 2 m/s 713 mmHg 80%
18:00 +23°C° 2.1 mm 1 m/s 713 mmHg 89%
19:00 +21°C° 0.5 mm 1 m/s 713 mmHg 90%
20:00 +20°C° 0.5 mm 1 m/s 714 mmHg 91%
21:00 +19°C° 0.5 mm 1 m/s 714 mmHg 92%
22:00 +19°C° 0 mm 1 m/s 714 mmHg 92%
23:00 +18°C° 0 mm 1 m/s 714 mmHg 92%

19 Junho, Sábado

Tempo Temperatura Precipitação Vento Pressão Humidade
00:00 +18°C° 0 mm 1 m/s 714 mmHg 92%
01:00 +18°C° 0.1 mm 1 m/s 714 mmHg 92%
02:00 +18°C° 0.1 mm 1 m/s 714 mmHg 92%
03:00 +18°C° 0.1 mm 1 m/s 714 mmHg 92%
04:00 +19°C° 0 mm 1 m/s 714 mmHg 91%
05:00 +20°C° 0 mm 1 m/s 714 mmHg 90%
06:00 +19°C° 0 mm 0 m/s 715 mmHg 88%
07:00 +23°C° 0 mm 1 m/s 714 mmHg 80%
08:00 +25°C° 0 mm 1 m/s 714 mmHg 71%
09:00 +27°C° 0 mm 1 m/s 714 mmHg 62%
10:00 +28°C° 0 mm 2 m/s 714 mmHg 57%
11:00 +29°C° 0 mm 2 m/s 714 mmHg 53%
12:00 +30°C° 0 mm 2 m/s 714 mmHg 48%
13:00 +31°C° 0 mm 2 m/s 714 mmHg 48%
14:00 +31°C° 0 mm 1 m/s 714 mmHg 48%
15:00 +31°C° 0 mm 1 m/s 714 mmHg 48%
16:00 +30°C° 0 mm 1 m/s 713 mmHg 56%
17:00 +28°C° 0 mm 1 m/s 713 mmHg 64%
18:00 +27°C° 0 mm 1 m/s 712 mmHg 71%
19:00 +26°C° 0 mm 1 m/s 712 mmHg 74%
20:00 +24°C° 0 mm 1 m/s 712 mmHg 76%
21:00 +23°C° 0 mm 2 m/s 712 mmHg 78%
22:00 +23°C° 0 mm 1 m/s 712 mmHg 79%
23:00 +22°C° 0 mm 1 m/s 711 mmHg 80%

20 Junho, Domingo

Tempo Temperatura Precipitação Vento Pressão Humidade
00:00 +22°C° 0 mm 1 m/s 711 mmHg 81%
01:00 +21°C° 0 mm 1 m/s 711 mmHg 81%
02:00 +21°C° 0 mm 1 m/s 711 mmHg 81%
03:00 +20°C° 0 mm 1 m/s 711 mmHg 82%
04:00 +21°C° 0 mm 1 m/s 711 mmHg 79%
05:00 +23°C° 0 mm 1 m/s 710 mmHg 77%
06:00 +22°C° 0 mm 0 m/s 710 mmHg 74%
07:00 +25°C° 0 mm 1 m/s 710 mmHg 70%
08:00 +26°C° 0 mm 1 m/s 710 mmHg 65%
09:00 +28°C° 0 mm 1 m/s 710 mmHg 60%
10:00 +28°C° 0.3 mm 2 m/s 711 mmHg 59%
11:00 +28°C° 0.3 mm 3 m/s 711 mmHg 58%
12:00 +28°C° 0.3 mm 4 m/s 711 mmHg 57%
13:00 +26°C° 1.6 mm 3 m/s 711 mmHg 69%
14:00 +22°C° 1.6 mm 3 m/s 711 mmHg 81%
15:00 +20°C° 1.6 mm 3 m/s 710 mmHg 92%
16:00 +20°C° 0.3 mm 2 m/s 710 mmHg 92%
17:00 +20°C° 0.3 mm 2 m/s 710 mmHg 92%
18:00 +20°C° 0.3 mm 2 m/s 710 mmHg 92%
19:00 +21°C° 0.7 mm 1 m/s 710 mmHg 94%
20:00 +20°C° 0.7 mm 1 m/s 710 mmHg 96%
21:00 +19°C° 0.7 mm 1 m/s 710 mmHg 97%
22:00 +19°C° 0.7 mm 1 m/s 710 mmHg 97%
23:00 +16°C° 0.7 mm 0 m/s 710 mmHg 97%

21 Junho, Segunda-feira

Tempo Temperatura Precipitação Vento Pressão Humidade
00:00 +16°C° 0.7 mm 0 m/s 710 mmHg 98%
01:00 +16°C° 0.4 mm 0 m/s 710 mmHg 97%
02:00 +19°C° 0.4 mm 1 m/s 709 mmHg 97%
03:00 +19°C° 0.4 mm 1 m/s 709 mmHg 97%
04:00 +17°C° 0.6 mm 0 m/s 709 mmHg 97%
05:00 +17°C° 0.6 mm 0 m/s 710 mmHg 97%
06:00 +18°C° 0.6 mm 0 m/s 710 mmHg 97%
07:00 +18°C° 0.5 mm 0 m/s 710 mmHg 96%
08:00 +18°C° 0.5 mm 0 m/s 710 mmHg 96%
09:00 +21°C° 0.5 mm 1 m/s 710 mmHg 95%
10:00 +21°C° 0.3 mm 1 m/s 710 mmHg 93%
11:00 +22°C° 0.3 mm 1 m/s 709 mmHg 91%
12:00 +22°C° 0.3 mm 1 m/s 709 mmHg 89%
13:00 +22°C° 0.9 mm 1 m/s 709 mmHg 89%
14:00 +22°C° 0.9 mm 1 m/s 710 mmHg 89%
15:00 +22°C° 0.9 mm 1 m/s 710 mmHg 89%
16:00 +22°C° 0.8 mm 1 m/s 710 mmHg 90%
17:00 +22°C° 0.8 mm 1 m/s 709 mmHg 91%
18:00 +21°C° 0.8 mm 1 m/s 709 mmHg 92%
19:00 +20°C° 3.7 mm 1 m/s 710 mmHg 94%
20:00 +19°C° 3.7 mm 1 m/s 710 mmHg 95%
21:00 +18°C° 3.7 mm 1 m/s 711 mmHg 97%
22:00 +18°C° 0.5 mm 1 m/s 711 mmHg 97%
23:00 +18°C° 0.5 mm 1 m/s 711 mmHg 97%
Mostrar mais